This demonstration page uses our WeatherBlox Daily Observations layout. Learn more.

Left ArrowRight Arrow

47.50024, -111.30081

Hourly Observations for May 3, 2021

Temp ( °F °C ) Dew Point ( °F °C ) Humidity (%) Winds ( mph kmh ) Pressure ( in mb ) Visibility ( mi km ) Precip ( " mm )
12:53 am 00:53 Clear 29 -1.7 26 -3.3 89 89 SW 6 9 30.19 1022 10 16 0.00 0.00
1:53 am 01:53 Mostly Clear 30 -1.1 27 -2.8 88 88 WSW 8 13 30.20 1023 10 16 0.00 0.00
2:53 am 02:53 Clear 30 -1.1 27 -2.8 88 88 SW 8 13 30.19 1022 10 16 0.00 0.00
3:53 am 03:53 Clear 30 -1.1 27 -2.8 88 88 SW 8 13 30.18 1022 10 16 0.00 0.00
4:53 am 04:53 Clear 29 -1.7 27 -2.8 92 92 SW 10 17 30.19 1023 10 16 0.00 0.00
5:53 am 05:53 Clear 29 -1.7 26 -3.3 89 89 SW 5 7 30.19 1023 10 16 0.00 0.00
6:53 am 06:53 Sunny 30 -1.1 28 -2.2 92 92 SSW 8 13 30.21 1023 10 16 0.00 0.00
7:53 am 07:53 Sunny 38 3.3 33 0.6 83 83 SSW 7 11 30.20 1023 10 16 0.00 0.00
8:53 am 08:53 Sunny 41 5 34 1.1 76 76 SW 7 11 30.21 1023 10 16 0.00 0.00
9:53 am 09:53 Sunny 46 7.8 34 1.1 63 63 SW 6 9 30.20 1023 10 16 0.00 0.00
10:53 am 10:53 Sunny 50 10 34 1.1 54 54 VRB 6 9 30.19 1022 10 16 0.00 0.00
11:53 am 11:53 Sunny 51 10.6 29 -1.7 43 43 S 7 11 30.18 1022 10 16 0.00 0.00
12:53 pm 12:53 Sunny 54 12.2 24 -4.4 31 31 S 5 7 30.16 1021 10 16 0.00 0.00
1:53 pm 13:53 Sunny 55 12.8 25 -3.9 31 31 VRB 6 9 30.13 1020 10 16 0.00 0.00
2:53 pm 14:53 Sunny 57 13.9 24 -4.4 28 28 VRB 5 7 30.10 1019 10 16 0.00 0.00
3:53 pm 15:53 Sunny 57 13.9 22 -5.6 26 26 VRB 5 7 30.07 1018 10 16 0.00 0.00
4:53 pm 16:53 Sunny 59 15 18 -7.8 20 20 WSW 6 9 30.05 1018 10 16 0.00 0.00
5:53 pm 17:53 Sunny 57 13.9 18 -7.8 22 22 W 5 7 30.05 1018 10 16 0.00 0.00
6:53 pm 18:53 Mostly Sunny 56 13.3 22 -5.6 27 27 Calm 30.04 1017 10 16 0.00 0.00
7:53 pm 19:53 Sunny 53 11.7 29 -1.7 40 40 Calm 30.01 1016 8 13 0.00 0.00
8:53 pm 20:53 Clear 53 11.7 24 -4.4 32 32 E 3 6 30.00 1016 8 13 0.00 0.00
9:53 pm 21:53 Mostly Cloudy 50 10 28 -2.2 43 43 E 5 7 30.01 1016 10 16 0.00 0.00
10:53 pm 22:53 Cloudy 49 9.4 30 -1.1 48 48 SE 5 7 29.98 1015 10 16 0.00 0.00
11:53 pm 23:53 Cloudy 45 7.2 33 0.6 63 63 W 6 9 29.99 1016 10 16 0.00 0.00

Powered by AerisWeather